x

South Brooks (46132) Wave Buoy

2:00am - Wed 22nd Feb 2017 All times are PST. -8 hours from GMT.

  • Sig Wave height 5.9ft
  • Peak Period 15s
  • Wind
  • Sea Temp 47°f
  • Air Temp 41°f
  • Sea Pressure 1021.3mb
  • South Brooks
  • South Brooks

More Historic Weather Station data

Upgrade to MSW Pro to gain access to the past 30 days of data for over 8000 Wavebouys and Weather Stations around the globe.

Join Pro

Comparision Forecast

View Surf forecast
   
Wed 02/22 2:00am 6ft 15s  -  7 mph 1021.3mb 47f 41f
1:00am 6ft 10s 2 7 mph 1021.5mb 47f 40f
12:00am 6ft 7s  -  4 mph 1021.2mb 47f 40f
Tue 02/21 11:00pm 6.5ft 11s 7 18 mph 1021mb 47f 38f
10:00pm 6ft 15s 4 16 mph 1020.4mb 47f 43f
9:00pm 7ft 11s  -  2 mph 1020.2mb 47f 40f
8:00pm 6ft 11s 9 16 mph 1019.5mb 47f 44f
7:00pm 6.5ft 10s 11 18 mph 1019.1mb 47f 44f
6:00pm 6ft 10s 9 13 mph 1018.6mb 47f 43f
5:00pm 6.5ft 11s 7 11 mph 1018mb 47f 43f
4:00pm 5ft 11s 22 31 mph 1017.2mb 47f 43f
3:00pm 5ft 10s 11 18 mph 1016.9mb 47f 44f
2:00pm 6ft 12s 11 18 mph 1016.2mb 47f 44f
1:00pm 6ft 11s 7 18 mph 1015.8mb 47f 41f
12:00pm 5.5ft 10s 2 9 mph 1015.6mb 47f 42f
11:00am 6ft 11s 7 13 mph 1014.9mb 47f 42f
10:00am 6ft 11s 16 27 mph 1013.5mb 47f 44f
9:00am 6.5ft 12s 9 18 mph 1012.8mb 47f 43f
8:00am 6ft 11s 9 16 mph 1012mb 47f 43f
7:00am 6ft 12s 2 9 mph 1011.4mb 47f 43f
6:00am 5.5ft 12s 7 18 mph 1010.9mb 47f 43f
5:00am 6ft 11s 4 11 mph 1010.6mb 47f 44f
4:00am 6ft 12s 2 7 mph 1010.2mb 47f 44f
3:00am 5.5ft 12s 2 16 mph 1010.1mb 47f 43f
2:00am 5ft 11s  -  4 mph 1009.7mb 47f 44f
1:00am 6ft 11s 2 9 mph 1009.2mb 47f 44f
12:00am 6ft 12s 4 13 mph 1008.6mb 47f 44f
Mon 02/20 11:00pm 6.5ft 12s 2 4 mph 1008.3mb 47f 44f
10:00pm 6ft 12s 2 7 mph 1007.9mb 47f 44f
9:00pm 7ft 12s 2 7 mph 1007.8mb 47f 44f
8:00pm 6.5ft 12s  -  4 mph 1007.5mb 47f 44f
7:00pm 7ft 13s 2 7 mph 1007.2mb 47f 44f
6:00pm 7ft 12s 2 9 mph 1006.9mb 47f 44f
5:00pm 7ft 12s 4 11 mph 1006.6mb 47f 44f
4:00pm 7ft 14s 9 11 mph 1006mb 47f 44f
3:00pm 8ft 13s 9 13 mph 1005.4mb 47f 44f
2:00pm 8ft 13s 9 13 mph 1004.8mb 47f 44f
1:00pm 7ft 14s 7 11 mph 1004.6mb 47f 44f
12:00pm 8ft 13s 7 11 mph 1004.3mb 47f 44f
11:00am 8ft 13s 4 9 mph 1003.6mb 47f 44f
10:00am 8.5ft 14s 2 7 mph 1002.8mb 47f 44f
9:00am 9ft 14s  -  4 mph 1002.3mb 47f 44f
8:00am 9.5ft 14s  -  mph 1001.8mb 47f 44f
7:00am 9ft 14s  -  mph 1001.1mb 47f 43f
6:00am 9.5ft 14s  -  mph 1000.9mb 47f 43f
5:00am 10.5ft 14s  -  mph 1000.8mb 48f 43f
4:00am 9.5ft 12s  -  mph 1000.9mb 47f 43f
3:00am 10ft 14s  -  2 mph 1001.3mb 47f 43f
2:00am 10ft 15s  -  4 mph 1001.4mb 48f 43f
1:00am 8.5ft 16s  -  4 mph 1001.1mb 48f 43f
12:00am 8ft 14s  -  4 mph 1000.6mb 48f 44f
Sun 02/19 11:00pm 8ft 14s 2 7 mph 1000.2mb 48f 44f
10:00pm 7ft 15s 2 9 mph 999.7mb 48f 44f
9:00pm 8ft 16s 2 11 mph 999mb 47f 44f
8:00pm 7ft 15s 2 9 mph 998.4mb 48f 44f
7:00pm 7.5ft 16s 4 13 mph 997.7mb 48f 44f
6:00pm 6.5ft 16s 4 11 mph 997.3mb 48f 44f
5:00pm 6ft 17s 4 11 mph 996.9mb 48f 44f
4:00pm 6.5ft 17s 7 11 mph 996.7mb 48f 44f
3:00pm 6ft 17s 4 9 mph 996.4mb 48f 44f
2:00pm 6ft 18s 4 9 mph 996.2mb 48f 43f
1:00pm 5ft 18s 7 11 mph 995.9mb 48f 43f
12:00pm 5ft 11s 2 7 mph 995.9mb 48f 42f
11:00am 4.5ft 10s 2 4 mph 995.9mb 48f 41f
10:00am 5.5ft 11s 2 4 mph 995.3mb 48f 42f
9:00am 4.5ft 11s 2 7 mph 994.7mb 48f 43f
8:00am 5ft 12s 4 9 mph 994.4mb 48f 43f
7:00am 5ft 10s 2 9 mph 994.1mb 48f 43f
6:00am 5ft 12s 4 9 mph 994mb 48f 43f